User: anonymous   Login
Location: Ferma
(41.9500°N, 44.5167°E)
Time: 03:42:09
(UTC+00:00)
Language:

Cosmos 1300 - Orbit

View from above orbital plane
View from above orbital plane
View from above satellite
View from above satellite

Ground track
Ground track

The orbit data is extracted from the following two-line orbital elements,

1 12785U 81082A   22021.77223674  .00001579  00000-0  74933-4 0  9999
2 12785  82.5016 210.7306 0002008 121.0140 249.4719 15.18556958206574
Epoch (UTC): 21 January 2022 18:32:01
Eccentricity: 0.0002008
inclination: 82.5016°
perigee height: 509 km
apogee height: 511 km
right ascension of ascending node: 210.7306°
argument of perigee: 121.0140°
revolutions per day: 15.18556958
mean anomaly at epoch: 249.4719°
orbit number at epoch: 20657

The dashed part of the orbit path shows where the satellite is in the earth's shadow,  

DLR